Location: Bailey Inglish Elementary School
(33.5826°N, 96.1780°W)
Time: 15:59:55
(UTC+00:00)

BlueWalker 3 - Pass Details

Date: 29 June 2024
Orbit: 480 x 492 km, 53.2° (Epoch: 15 July)

Event Time Altitude Azimuth Distance (km) Brightness Sun altitude
Rises 06:22:02 0° 323° (NW) 2,536 6.2 -33.2°
Reaches altitude 10° 06:24:19 10° 333° (NNW) 1,654 5.2 -33.2°
Enters shadow 06:24:33 11° 334° (NNW) 1,572 5.1 -33.2°
